1515873600.43,12394,5.88,73444.0,-14.85,-17.55,-17.63,0,*60
1515873601.69,12395,5.88,73442.3,-14.83,-17.49,-17.59,0,*63
1515873602.92,12396,5.88,73444.5,-14.85,-17.55,-17.73,0,*63
1515873604.18,12397,5.88,73444.8,-14.85,-17.55,-17.63,0,*63
1515873605.44,12398,5.88,73444.8,-14.85,-17.63,-17.63,0,*69
1515873606.67,12399,5.88,73444.0,-14.85,-17.63,-17.69,0,*62
1515873607.9,12400,5.88,73444.0,-14.85,-17.63,-17.69,0,*65
1515873609.13,12401,5.88,73444.8,-14.85,-17.63,-17.73,0,*6F
1515873610.36,12402,5.88,73448.0,-14.85,-17.63,-17.73,0,*6C
1515873611.59,12403,5.88,73446.8,-14.85,-17.63,-17.73,0,*6D
1515873612.82,12404,5.88,73442.3,-14.85,-17.63,-17.69,0,*61
1515873614.08,12405,5.88,73440.5,-14.89,-17.63,-17.63,0,*66
1515873615.33,12406,5.88,73440.8,-14.85,-17.63,-17.63,0,*69
1515873616.59,12407,5.88,73440.8,-14.89,-17.63,-17.63,0,*64
1515873617.83,12408,5.88,73440.5,-14.89,-17.63,-17.69,0,*61
1515873619.07,12409,5.88,73442.0,-14.89,-17.63,-17.83,0,*64
1515873620.31,12410,5.88,73440.0,-14.85,-17.63,-17.83,0,*60
1515873621.54,12411,5.88,73438.0,-14.89,-17.63,-17.73,0,*62
1515873622.77,12412,5.88,73440.5,-14.85,-17.63,-17.69,0,*66
1515873624.04,12413,5.88,73442.5,-14.89,-17.63,-17.63,0,*61
1515873625.3,12414,5.88,73442.3,-14.89,-17.63,-17.63,0,*66
1515873626.54,12415,5.88,73440.5,-14.89,-17.69,-17.63,0,*6D
1515873627.79,12416,5.88,73440.5,-14.85,-17.55,-17.63,0,*6D
1515873629.05,12417,5.88,73440.8,-14.91,-17.59,-17.73,0,*64
1515873630.29,12418,5.88,73438.5,-14.89,-17.55,-17.69,0,*65
1515873631.56,12419,5.88,73440.8,-14.89,-17.55,-17.63,0,*6E
1515873632.83,12420,5.88,73442.8,-14.89,-17.41,-17.55,0,*64
1515873634.07,12421,5.88,73440.3,-14.85,-17.35,-17.55,0,*6A
1515873635.34,12422,5.88,73442.0,-14.89,-17.41,-17.55,0,*66
1515873636.61,12423,5.88,73442.0,-14.89,-17.41,-17.55,0,*67
1515873637.87,12424,5.88,73438.0,-14.89,-17.55,-17.55,0,*65
1515873639.11,12425,5.88,73436.5,-14.89,-17.49,-17.55,0,*69
1515873640.33,12426,5.88,73442.3,-14.89,-17.49,-17.49,0,*67
1515873641.6,12427,5.88,73440.3,-14.89,-17.41,-17.41,0,*66
1515873642.85,12428,5.88,73436.0,-14.89,-17.21,-17.35,0,*6C
1515873644.12,12429,5.88,73440.0,-14.89,-17.11,-17.21,0,*6B
1515873645.38,12430,5.88,73438.8,-14.89,-17.07,-17.11,0,*67
1515873646.66,12431,5.88,73440.8,-14.89,-17.07,-17.07,0,*61
1515873647.9,12432,5.88,73438.5,-14.89,-16.93,-17.11,0,*69
1515873649.11,12433,5.88,73440.8,-14.85,-16.93,-16.97,0,*6B
1515873650.31,12434,5.88,73440.8,-14.85,-16.93,-16.83,0,*69
1515873651.52,12435,5.88,73438.3,-14.85,-16.83,-16.93,0,*68
1515873652.74,12436,5.88,73442.0,-14.89,-16.97,-16.97,0,*66
1515873653.95,12437,5.88,73438.0,-14.89,-16.97,-16.97,0,*67
1515873655.23,12438,5.88,73440.3,-14.89,-17.07,-17.07,0,*68
1515873656.44,12439,5.88,73440.3,-14.85,-16.97,-16.97,0,*65
1515873657.69,12440,5.88,73440.3,-14.89,-16.97,-17.07,0,*6F
1515873658.92,12441,5.88,73440.0,-14.85,-17.07,-16.97,0,*62
1515873660.14,12442,5.88,73436.3,-14.89,-16.97,-16.97,0,*65
1515873661.35,12443,5.88,73444.5,-14.89,-16.93,-16.97,0,*60
1515873662.6,12444,5.88,73442.3,-14.89,-16.97,-17.07,0,*6B
1515873663.86,12445,5.88,73440.5,-14.85,-17.07,-17.11,0,*69
1515873665.09,12446,5.88,73438.8,-14.85,-17.07,-16.93,0,*61
1515873666.36,12447,5.88,73440.3,-14.85,-17.07,-17.07,0,*6C
1515873667.6,12448,5.88,73442.0,-14.85,-17.11,-16.97,0,*6C
1515873668.86,12449,5.88,73436.8,-14.85,-17.07,-17.07,0,*62
1515873670.13,12450,5.88,73442.3,-14.85,-17.07,-17.11,0,*6D
1515873671.37,12451,5.88,73444.8,-14.85,-17.21,-17.35,0,*6E
1515873672.66,12452,5.88,73444.3,-14.83,-17.21,-17.21,0,*6E
1515873673.92,12453,5.88,73444.0,-14.83,-17.21,-17.35,0,*6A
1515873675.19,12454,5.88,73442.5,-14.85,-17.25,-17.41,0,*6C
1515873676.45,12455,5.88,73440.8,-14.85,-17.25,-17.25,0,*6F
1515873677.73,12456,5.88,73444.0,-14.83,-17.21,-17.21,0,*6A
1515873679.02,12457,5.88,73442.3,-14.83,-17.07,-17.17,0,*6A
1515873680.28,12458,5.88,73442.3,-14.85,-17.07,-17.11,0,*65
1515873681.52,12459,5.88,73444.3,-14.85,-16.97,-17.07,0,*6B
1515873682.79,12460,5.88,73446.8,-14.85,-17.07,-17.07,0,*69
1515873684.06,12461,5.88,73448.0,-14.85,-17.21,-17.07,0,*6C
1515873685.32,12462,5.88,73446.8,-14.85,-17.25,-17.11,0,*6C
1515873686.59,12463,5.88,73448.3,-14.85,-17.21,-17.11,0,*69
1515873687.85,12464,5.88,73450.3,-14.89,-17.21,-17.25,0,*65
1515873689.09,12465,5.88,73448.5,-14.83,-17.35,-17.31,0,*6E
1515873690.32,12466,5.88,73442.8,-14.85,-17.49,-17.41,0,*67
1515873691.56,12467,5.88,73444.8,-14.85,-17.55,-17.49,0,*63
1515873692.77,12468,5.88,73444.3,-14.85,-17.49,-17.49,0,*61
1515873694.01,12469,5.88,73450.3,-14.89,-17.49,-17.55,0,*61
1515873695.22,12470,5.88,73446.5,-14.85,-17.49,-17.49,0,*68
1515873696.48,12471,5.88,73442.3,-14.85,-17.55,-17.63,0,*6C
1515873697.73,12472,5.88,73446.3,-14.85,-17.55,-17.55,0,*6A
1515873699.0,12473,5.88,73446.0,-14.85,-17.45,-17.59,0,*66
1515873700.26,12474,5.88,73438.3,-14.85,-17.55,-17.63,0,*69
1515873701.52,12475,5.88,73444.0,-14.85,-17.55,-17.63,0,*68
1515873702.75,12476,5.88,73446.3,-14.85,-17.63,-17.69,0,*64
1515873704.01,12477,5.88,73442.0,-14.89,-17.63,-17.63,0,*63
1515873705.27,12478,5.88,73440.3,-14.85,-17.55,-17.63,0,*65
1515873706.49,12479,5.88,73442.3,-14.89,-17.35,-17.49,0,*66
1515873707.75,12480,5.88,73440.0,-14.85,-17.41,-17.41,0,*67
1515873709.02,12481,5.88,73442.0,-14.89,-17.41,-17.41,0,*6A
1515873710.26,12482,5.88,73440.5,-14.85,-17.49,-17.41,0,*6D
1515873711.5,12483,5.88,73440.5,-14.85,-17.25,-17.49,0,*6E
1515873712.74,12484,5.88,73440.5,-14.85,-17.11,-17.35,0,*65
1515873713.97,12485,5.88,73436.0,-14.85,-16.97,-17.11,0,*6D
1515873715.19,12486,5.88,73442.3,-14.89,-16.97,-16.97,0,*6D
1515873716.4,12487,5.88,73442.3,-14.85,-16.97,-16.97,0,*60
1515873717.61,12488,5.88,73442.0,-14.89,-16.97,-16.93,0,*67
1515873718.82,12489,5.88,73440.0,-14.85,-16.97,-16.97,0,*6E
1515873720.09,12490,5.88,73444.5,-14.89,-17.11,-17.07,0,*6D
1515873721.36,12491,5.88,73446.8,-14.89,-17.21,-17.11,0,*68
1515873722.63,12492,5.88,73446.5,-14.89,-17.25,-17.21,0,*6C
1515873723.88,12493,5.88,73444.3,-14.89,-17.21,-17.35,0,*6C
1515873725.13,12494,5.88,73442.8,-14.85,-17.25,-17.25,0,*62
1515873726.4,12495,5.88,73444.3,-14.89,-17.25,-17.21,0,*6B
1515873727.65,12496,5.88,73446.5,-14.85,-17.25,-17.35,0,*61
1515873728.91,12497,5.88,73444.8,-14.89,-17.25,-17.25,0,*6D
1515873730.14,12498,5.88,73444.0,-14.89,-17.35,-17.35,0,*62
1515873731.37,12499,5.88,73446.8,-14.85,-17.49,-17.41,0,*67
1515873732.65,12500,5.94,73444.3,-14.89,-17.41,-17.41,0,*62
1515873733.94,12501,5.88,73444.3,-14.91,-17.45,-17.45,0,*6A
1515873735.15,12502,5.88,73446.0,-14.85,-17.35,-17.49,0,*67
1515873736.42,12503,5.88,73444.8,-14.89,-17.41,-17.41,0,*61
1515873737.65,12504,5.88,73440.8,-14.85,-17.35,-17.35,0,*6A
1515873738.89,12505,5.88,73444.0,-14.89,-17.41,-17.49,0,*6F
1515873740.13,12506,5.88,73444.3,-14.89,-17.49,-17.55,0,*69
1515873741.35,12507,5.88,73438.5,-14.89,-17.49,-17.49,0,*65
1515873742.58,12508,5.88,73438.0,-14.85,-17.49,-17.55,0,*6B
1515873743.85,12509,5.88,73440.5,-14.85,-17.41,-17.55,0,*62
1515873745.09,12510,5.88,73438.5,-14.89,-17.41,-17.49,0,*6B
1515873746.36,12511,5.88,73440.3,-14.89,-17.41,-17.55,0,*67
1515873747.57,12512,5.88,73442.0,-14.85,-17.49,-17.49,0,*6D
1515873748.78,12513,5.88,73440.5,-14.85,-17.49,-17.49,0,*6C
1515873750.03,12514,5.88,73442.0,-14.89,-17.35,-17.41,0,*64
1515873751.27,12515,5.88,73442.8,-14.89,-17.35,-17.41,0,*65
1515873752.5,12516,5.94,73444.8,-14.89,-17.35,-17.35,0,*65
1515873753.77,12517,5.88,73436.3,-14.89,-17.41,-17.41,0,*64
1515873755.01,12518,5.88,73438.5,-14.89,-17.49,-17.55,0,*66
1515873756.25,12519,5.88,73442.3,-14.89,-17.25,-17.49,0,*60
1515873757.5,12520,5.88,73440.3,-14.89,-17.35,-17.41,0,*63
1515873758.72,12521,5.88,73442.3,-14.89,-17.49,-17.35,0,*6A
1515873759.97,12522,5.88,73440.8,-14.89,-17.49,-17.41,0,*6A
1515873761.18,12523,5.88,73442.3,-14.89,-17.49,-17.49,0,*63
1515873762.43,12524,5.94,73446.8,-14.89,-17.49,-17.41,0,*6C
1515873763.7,12525,5.88,73438.5,-14.89,-17.41,-17.41,0,*65
1515873764.94,12526,5.94,73442.8,-14.85,-17.41,-17.49,0,*62
1515873766.2,12527,5.88,73438.8,-14.89,-17.55,-17.55,0,*67
1515873767.42,12528,5.88,73436.5,-14.89,-17.49,-17.69,0,*6A
1515873768.67,12529,5.88,73436.0,-14.89,-17.35,-17.55,0,*6F
1515873769.93,12530,5.88,73436.8,-14.89,-17.55,-17.55,0,*61
1515873771.18,12531,5.88,73438.0,-14.85,-17.63,-17.63,0,*6C
1515873772.4,12532,5.94,73442.8,-14.89,-17.69,-17.69,0,*63
1515873773.63,12533,5.94,73444.3,-14.89,-17.63,-17.73,0,*63
1515873774.89,12534,5.94,73440.0,-14.89,-17.63,-17.63,0,*65
1515873776.13,12535,5.94,73440.5,-14.85,-17.55,-17.69,0,*67
1515873777.37,12536,5.94,73442.5,-14.89,-17.49,-17.55,0,*6A
1515873778.59,12537,5.88,73442.8,-14.89,-17.49,-17.49,0,*66
1515873779.8,12538,5.88,73442.8,-14.89,-17.49,-17.49,0,*69
1515873781.07,12539,5.88,73440.3,-14.89,-17.55,-17.55,0,*68
1515873782.3,12540,5.88,73438.5,-14.89,-17.63,-17.69,0,*6C
1515873783.54,12541,5.88,73440.0,-14.91,-17.69,-17.73,0,*65
1515873784.83,12542,5.88,73440.5,-14.91,-17.45,-17.59,0,*60
1515873786.12,12543,5.94,73444.5,-14.93,-17.45,-17.45,0,*6E
1515873787.41,12544,5.88,73442.5,-14.91,-17.45,-17.55,0,*6A
1515873788.7,12545,5.94,73442.3,-14.91,-17.55,-17.55,0,*6A
1515873789.99,12546,5.88,73438.3,-14.91,-17.59,-17.59,0,*69
1515873791.22,12547,5.94,73442.8,-14.91,-17.69,-17.73,0,*63
1515873792.46,12548,5.88,73438.5,-14.91,-17.69,-17.69,0,*67
1515873793.72,12549,5.88,73438.3,-14.91,-17.79,-17.87,0,*67
1515873794.98,12550,5.88,73440.5,-14.91,-17.87,-17.93,0,*6B
1515873796.26,12551,5.94,73440.3,-14.91,-17.79,-18.01,0,*6F
1515873797.52,12552,5.88,73442.5,-14.91,-17.69,-17.93,0,*69
1515873798.78,12553,5.94,73444.5,-14.91,-17.59,-17.69,0,*6E
1515873800.01,12554,5.88,73442.0,-14.91,-17.69,-17.73,0,*61
1515873801.27,12555,5.94,73446.0,-14.91,-17.55,-17.69,0,*64
1515873802.56,12556,5.94,73446.3,-14.91,-17.59,-17.59,0,*68
1515873803.85,12557,5.88,73440.8,-14.91,-17.55,-17.59,0,*65
1515873805.14,12558,5.88,73444.0,-14.91,-17.41,-17.41,0,*66
1515873806.41,12559,5.94,73442.8,-14.91,-17.45,-17.31,0,*64
1515873807.7,12560,5.94,73440.8,-14.91,-17.41,-17.55,0,*68
1515873808.99,12561,5.88,73442.8,-14.91,-17.45,-17.45,0,*6C
1515873810.28,12562,5.94,73440.3,-14.91,-17.59,-17.59,0,*6F
1515873811.54,12563,5.94,73440.0,-14.91,-17.59,-17.73,0,*66
1515873812.8,12564,5.94,73442.3,-14.91,-17.59,-17.69,0,*6A
1515873814.06,12565,5.88,73438.5,-14.91,-17.59,-17.69,0,*6B
1515873815.32,12566,5.94,73440.5,-14.91,-17.59,-17.73,0,*63
1515873816.58,12567,5.88,73442.0,-14.91,-17.59,-17.69,0,*69
1515873817.84,12568,5.88,73440.3,-14.91,-17.59,-17.69,0,*66
1515873819.1,12569,5.88,73440.5,-14.91,-17.59,-17.73,0,*6C
1515873820.37,12570,5.88,73446.8,-14.91,-17.45,-17.69,0,*62
1515873821.63,12571,5.94,73446.0,-14.91,-17.59,-17.69,0,*6E
1515873822.89,12572,5.94,73450.5,-14.91,-17.59,-17.69,0,*6D
1515873824.12,12573,5.88,73444.5,-14.91,-17.73,-17.73,0,*6F
1515873825.38,12574,5.94,73446.3,-14.91,-17.73,-17.79,0,*62
1515873826.64,12575,5.94,73444.5,-14.91,-17.55,-17.69,0,*66
1515873827.93,12576,5.94,73444.8,-14.91,-17.45,-17.55,0,*6B
1515873829.22,12577,5.94,73444.8,-14.91,-17.59,-17.59,0,*6B
1515873830.49,12578,5.94,73442.8,-14.91,-17.79,-17.87,0,*65
1515873831.73,12579,5.88,73440.3,-14.91,-17.87,-17.87,0,*65
1515873832.97,12580,5.88,73438.8,-14.89,-17.83,-17.97,0,*6F
1515873834.25,12581,5.94,73442.0,-14.93,-17.79,-17.93,0,*64
1515873835.49,12582,5.94,73444.5,-14.91,-17.73,-17.87,0,*6A
1515873836.75,12583,5.94,73446.0,-14.91,-17.73,-17.79,0,*6A
1515873837.99,12584,5.88,73440.3,-14.93,-17.69,-17.69,0,*65
1515873839.25,12585,5.94,73446.5,-14.91,-17.59,-17.69,0,*65
1515873840.51,12586,5.94,73444.8,-14.91,-17.59,-17.73,0,*6D
1515873841.77,12587,5.94,73446.5,-14.91,-17.59,-17.69,0,*67
1515873843.06,12588,5.94,73444.5,-14.91,-17.55,-17.59,0,*67
1515873844.34,12589,5.94,73444.8,-14.91,-17.59,-17.59,0,*6A
1515873845.6,12590,5.88,73440.5,-14.91,-17.59,-17.73,0,*6A
1515873846.84,12591,5.94,73444.5,-14.91,-17.69,-17.73,0,*68
1515873848.12,12592,5.94,73440.8,-14.93,-17.93,-18.01,0,*66
1515873849.38,12593,5.88,73436.8,-14.93,-17.93,-18.17,0,*60
1515873850.62,12594,5.94,73438.3,-14.93,-17.87,-18.07,0,*63
1515873851.88,12595,5.94,73438.0,-14.91,-17.73,-17.79,0,*6D
1515873853.14,12596,5.94,73440.5,-14.91,-17.59,-17.69,0,*67
1515873854.4,12597,5.94,73440.3,-14.93,-17.45,-17.69,0,*69
1515873855.66,12598,5.88,73440.0,-14.91,-17.59,-17.69,0,*69
1515873856.9,12599,5.94,73444.3,-14.91,-17.69,-17.69,0,*6B
1515873858.17,12600,5.94,73442.3,-14.91,-17.45,-17.69,0,*66
1515873859.45,12601,5.88,73442.5,-14.91,-17.55,-17.45,0,*68
1515873860.74,12602,5.94,73442.0,-14.91,-17.45,-17.55,0,*6B
1515873862.03,12603,5.94,73442.3,-14.91,-17.59,-17.59,0,*6B
1515873863.29,12604,5.94,73440.3,-14.91,-17.59,-17.69,0,*6F
1515873864.55,12605,5.94,73446.8,-14.93,-17.55,-17.69,0,*60
1515873865.84,12606,5.94,73442.5,-14.91,-17.59,-17.59,0,*6E
1515873867.1,12607,5.94,73438.5,-14.91,-17.59,-17.73,0,*67
1515873868.36,12608,5.94,73440.5,-14.93,-17.59,-17.69,0,*61
1515873869.6,12609,5.94,73440.3,-14.91,-17.69,-17.69,0,*61
1515873870.86,12610,5.94,73442.3,-14.91,-17.59,-17.69,0,*6A
1515873872.12,12611,5.88,73442.8,-14.93,-17.59,-17.69,0,*69
1515873873.35,12612,5.94,73440.5,-14.91,-17.69,-17.69,0,*6B
1515873874.61,12613,5.94,73442.8,-14.93,-17.73,-17.79,0,*62
1515873875.87,12614,5.94,73442.3,-14.91,-17.69,-17.79,0,*6C
1515873877.13,12615,5.88,73440.5,-14.93,-17.59,-17.69,0,*6D
1515873878.42,12616,5.94,73442.3,-14.93,-17.55,-17.59,0,*61
1515873879.71,12617,5.94,73442.8,-14.91,-17.59,-17.59,0,*6E
1515873880.96,12618,5.94,73442.8,-14.93,-17.59,-17.73,0,*6B
1515873882.22,12619,5.94,73440.3,-14.93,-17.59,-17.69,0,*61
1515873883.51,12620,5.94,73444.3,-14.93,-17.55,-17.59,0,*64
1515873884.8,12621,5.94,73442.5,-14.93,-17.41,-17.59,0,*60
1515873886.06,12622,5.94,73440.3,-14.91,-17.31,-17.45,0,*6B
1515873887.32,12623,5.94,73442.8,-14.91,-17.31,-17.45,0,*6A
1515873888.57,12624,5.94,73446.0,-14.93,-17.31,-17.25,0,*69
1515873889.8,12625,5.94,73442.0,-14.93,-17.31,-17.31,0,*6D
1515873891.06,12626,5.88,73436.5,-14.91,-17.25,-17.31,0,*69
1515873892.35,12627,5.94,73444.0,-14.91,-17.25,-17.25,0,*6D
1515873893.57,12628,5.94,73440.5,-14.93,-17.31,-17.31,0,*60
1515873894.8,12629,5.94,73444.8,-14.91,-17.31,-17.31,0,*63
1515873896.03,12630,5.94,73444.3,-14.91,-17.31,-17.31,0,*6B
1515873897.29,12631,5.94,73444.0,-14.91,-17.31,-17.25,0,*6F
1515873898.55,12632,5.94,73446.0,-14.93,-17.41,-17.31,0,*6C
1515873899.84,12633,5.94,73450.3,-14.93,-17.45,-17.45,0,*6A
1515873901.13,12634,5.94,73450.3,-14.93,-17.41,-17.45,0,*69
1515873902.42,12635,5.94,73444.8,-14.91,-17.59,-17.59,0,*6E
1515873903.71,12636,5.94,73444.8,-14.91,-17.55,-17.59,0,*61
1515873905.0,12637,5.94,73446.3,-14.93,-17.45,-17.55,0,*6F
1515873906.28,12638,5.94,73444.0,-14.93,-17.55,-17.55,0,*61
1515873907.56,12639,5.94,73442.8,-14.91,-17.55,-17.55,0,*62
1515873908.85,12640,5.94,73442.8,-14.93,-17.45,-17.55,0,*6F
1515873910.14,12641,5.94,73438.0,-14.93,-17.55,-17.55,0,*6F
1515873911.43,12642,5.94,73442.8,-14.91,-17.41,-17.41,0,*6E
1515873912.72,12643,5.94,73442.0,-14.91,-17.25,-17.41,0,*6D
1515873913.95,12644,5.94,73438.5,-14.91,-17.31,-17.31,0,*68
1515873915.24,12645,5.94,73440.3,-14.93,-17.25,-17.45,0,*6D
1515873916.52,12646,5.94,73440.8,-14.91,-17.25,-17.25,0,*6A
1515873917.78,12647,5.94,73438.5,-14.91,-17.31,-17.17,0,*6F
1515873919.07,12648,5.94,73442.8,-14.91,-17.17,-17.17,0,*64
1515873920.33,12649,5.94,73442.8,-14.91,-17.17,-17.31,0,*61
1515873921.59,12650,5.94,73442.3,-14.91,-17.17,-17.31,0,*69
1515873922.85,12651,5.94,73442.0,-14.91,-17.25,-17.31,0,*69
1515873924.08,12652,5.94,73442.8,-14.93,-17.31,-17.31,0,*6D
1515873925.37,12653,5.94,73442.0,-14.91,-17.25,-17.25,0,*6E
1515873926.6,12654,5.94,73440.3,-14.91,-17.31,-17.31,0,*69
1515873927.86,12655,5.94,73440.5,-14.91,-17.31,-17.45,0,*6B
1515873929.12,12656,5.94,73442.0,-14.91,-17.41,-17.31,0,*6C
1515873930.41,12657,5.94,73440.3,-14.91,-17.41,-17.41,0,*6A
1515873931.7,12658,5.94,73438.3,-14.93,-17.25,-17.41,0,*65
1515873932.96,12659,5.94,73436.8,-14.91,-17.17,-17.31,0,*60
1515873934.25,12660,5.94,73436.5,-14.91,-17.25,-17.25,0,*6E
1515873935.51,12661,5.94,73440.5,-14.91,-17.25,-17.31,0,*6A
1515873936.77,12662,5.94,73444.8,-14.91,-17.25,-17.31,0,*69
1515873938.06,12663,5.94,73440.3,-14.93,-17.17,-17.25,0,*6E
1515873939.35,12664,5.94,73444.0,-14.91,-17.17,-17.17,0,*6A
1515873940.63,12665,5.94,73438.0,-14.91,-17.11,-17.11,0,*6B
1515873941.89,12666,5.94,73438.8,-14.91,-17.03,-16.97,0,*64
1515873943.16,12667,5.94,73438.0,-14.93,-16.97,-17.03,0,*67
1515873944.39,12668,5.94,73442.8,-14.91,-16.97,-16.97,0,*66
1515873945.65,12669,5.94,73438.3,-14.91,-17.03,-16.97,0,*6B
1515873946.94,12670,5.94,73438.3,-14.91,-17.03,-17.11,0,*6C
1515873948.23,12671,5.94,73442.5,-14.91,-17.11,-17.11,0,*6E
1515873949.52,12672,5.94,73440.5,-14.91,-17.25,-17.25,0,*6D
1515873950.78,12673,5.94,73440.3,-14.91,-17.25,-17.31,0,*69
1515873952.01,12674,5.94,73442.3,-14.91,-17.31,-17.31,0,*6B
1515873953.27,12675,5.94,73440.3,-14.93,-17.17,-17.31,0,*6C
1515873954.55,12676,5.94,73442.0,-14.91,-17.25,-17.25,0,*69
1515873955.84,12677,5.94,73440.3,-14.91,-17.25,-17.25,0,*68
1515873957.09,12678,5.94,73432.8,-14.91,-17.31,-17.25,0,*62
1515873958.36,12679,5.94,73438.8,-14.91,-17.41,-17.31,0,*61
1515873959.65,12680,5.94,73440.8,-14.91,-17.41,-17.41,0,*60
1515873960.94,12681,5.94,73438.3,-14.91,-17.45,-17.45,0,*61
1515873962.23,12682,5.94,73436.8,-14.91,-17.55,-17.59,0,*6E
1515873963.52,12683,5.94,73432.5,-14.91,-17.59,-17.59,0,*63
1515873964.78,12684,5.94,73438.0,-14.89,-17.55,-17.63,0,*68
1515873966.02,12685,5.94,73436.8,-14.89,-17.55,-17.73,0,*68
1515873967.26,12686,5.94,73428.8,-14.89,-17.49,-17.63,0,*67
1515873968.5,12687,5.94,73434.8,-14.89,-17.49,-17.55,0,*63
1515873969.8,12688,5.94,73438.0,-14.93,-17.45,-17.59,0,*67
1515873971.08,12689,5.94,73442.5,-14.93,-17.55,-17.41,0,*6E
1515873972.37,12690,5.94,73436.0,-14.91,-17.55,-17.45,0,*60
1515873973.66,12691,5.94,73436.8,-14.91,-17.41,-17.55,0,*65
1515873974.94,12692,5.94,73438.5,-14.91,-17.55,-17.55,0,*63
1515873976.23,12693,5.94,73432.5,-14.91,-17.59,-17.59,0,*62
1515873977.52,12694,5.94,73432.0,-14.91,-17.55,-17.59,0,*69
1515873978.81,12695,5.94,73432.0,-14.91,-17.59,-17.59,0,*64
1515873980.07,12696,5.94,73428.3,-14.91,-17.59,-17.73,0,*6F
1515873981.33,12697,5.94,73432.0,-14.93,-17.59,-17.69,0,*67
1515873982.61,12698,5.94,73434.8,-14.91,-17.59,-17.59,0,*69
1515873983.85,12699,5.94,73428.3,-14.91,-17.69,-17.73,0,*63
1515873985.11,12700,5.94,73430.8,-14.91,-17.59,-17.69,0,*6A
1515873986.4,12701,5.94,73428.5,-14.91,-17.55,-17.59,0,*64
1515873987.69,12702,5.94,73430.3,-14.91,-17.55,-17.59,0,*67
1515873988.98,12703,5.94,73430.5,-14.91,-17.45,-17.59,0,*67
1515873990.27,12704,5.94,73430.5,-14.91,-17.55,-17.59,0,*61
1515873991.56,12705,5.94,73432.8,-14.91,-17.59,-17.59,0,*6C
1515873992.82,12706,5.94,73428.5,-14.91,-17.59,-17.69,0,*6C
1515873994.06,12707,5.94,73428.5,-14.91,-17.69,-17.87,0,*6E
1515873995.34,12708,5.94,73430.8,-14.91,-17.59,-17.79,0,*63
1515873996.6,12709,5.94,73428.3,-14.91,-17.59,-17.69,0,*63
1515873997.87,12710,5.94,73424.0,-14.91,-17.55,-17.69,0,*67
1515873999.13,12711,5.94,73424.3,-14.91,-17.59,-17.69,0,*6A
1515874000.39,12712,5.94,73430.0,-14.91,-17.59,-17.69,0,*69
1515874001.65,12713,5.94,73430.0,-14.91,-17.59,-17.73,0,*63
1515874002.88,12714,5.94,73428.8,-14.91,-17.69,-17.73,0,*67
1515874004.14,12715,5.94,73424.8,-14.91,-17.55,-17.69,0,*62
1515874005.43,12716,5.94,73430.5,-14.93,-17.59,-17.59,0,*6C
1515874006.71,12717,5.94,73424.5,-14.93,-17.55,-17.59,0,*61
1515874008.01,12718,5.94,73424.0,-14.93,-17.41,-17.59,0,*6B
1515874009.3,12719,5.94,73430.0,-14.91,-17.41,-17.55,0,*64
1515874010.59,12720,5.94,73426.8,-14.93,-17.45,-17.55,0,*68
1515874011.88,12721,5.94,73426.8,-14.93,-17.41,-17.59,0,*61
1515874013.14,12722,5.94,73424.0,-14.91,-17.31,-17.41,0,*6E
1515874014.43,12723,5.94,73428.5,-14.91,-17.25,-17.45,0,*6E
1515874015.69,12724,5.94,73430.8,-14.93,-17.31,-17.41,0,*6A
1515874016.98,12725,5.94,73434.8,-14.93,-17.41,-17.45,0,*68
1515874018.27,12726,5.94,73432.5,-14.91,-17.41,-17.59,0,*64
1515874019.56,12727,5.94,73428.3,-14.91,-17.41,-17.55,0,*69
1515874020.85,12728,5.94,73432.3,-14.91,-17.25,-17.45,0,*65
1515874022.14,12729,5.94,73432.3,-14.93,-17.45,-17.55,0,*61
1515874023.43,12730,5.94,73432.8,-14.91,-17.45,-17.55,0,*6B
1515874024.72,12731,5.94,73432.3,-14.93,-17.45,-17.55,0,*68
1515874026.0,12732,5.94,73430.8,-14.93,-17.55,-17.55,0,*6A
1515874027.3,12733,5.94,73434.0,-14.91,-17.41,-17.59,0,*60
1515874028.59,12734,5.94,73434.3,-14.93,-17.41,-17.55,0,*69
1515874029.88,12735,5.94,73434.0,-14.93,-17.45,-17.45,0,*6D
1515874031.17,12736,5.94,73434.0,-14.93,-17.45,-17.45,0,*6E
1515874032.46,12737,5.94,73434.3,-14.93,-17.55,-17.59,0,*63
1515874033.74,12738,5.94,73436.3,-14.93,-17.55,-17.59,0,*6C
1515874035.0,12739,5.94,73432.8,-14.91,-17.59,-17.73,0,*6B
1515874036.26,12740,5.94,73436.5,-14.93,-17.59,-17.69,0,*6C
1515874037.52,12741,5.94,73434.8,-14.91,-17.69,-17.79,0,*6D
1515874038.75,12742,5.94,73436.3,-14.91,-17.69,-17.73,0,*64
1515874040.01,12743,5.94,73432.0,-14.93,-17.69,-17.79,0,*6D
1515874041.25,12744,5.94,73438.5,-14.93,-17.73,-17.87,0,*60
1515874042.48,12745,5.94,73434.0,-14.93,-17.69,-17.73,0,*61
1515874043.71,12746,5.94,73440.0,-14.93,-17.69,-17.69,0,*69
1515874044.95,12747,5.94,73438.5,-14.93,-17.69,-17.73,0,*63
1515874046.2,12748,5.94,73432.8,-14.93,-17.55,-17.69,0,*68
1515874047.47,12749,5.94,73434.8,-14.95,-17.59,-17.59,0,*60
1515874048.69,12750,5.94,73436.8,-14.95,-17.63,-17.73,0,*69
1515874049.94,12751,5.94,73434.0,-14.93,-17.79,-17.73,0,*65
1515874051.2,12752,5.94,73434.8,-14.93,-17.73,-17.79,0,*66
1515874052.46,12753,5.94,73430.8,-14.93,-17.69,-17.79,0,*6C
1515874053.69,12754,5.94,73426.3,-14.93,-17.69,-17.73,0,*61
1515874054.96,12755,5.94,73426.8,-14.93,-17.45,-17.69,0,*65
1515874056.25,12756,5.94,73424.3,-14.93,-17.41,-17.45,0,*6C
1515874057.54,12757,5.94,73426.0,-14.93,-17.45,-17.55,0,*68
1515874058.82,12758,5.94,73428.0,-14.93,-17.59,-17.59,0,*66
1515874060.11,12759,5.94,73428.3,-14.91,-17.59,-17.59,0,*65
1515874061.37,12760,5.94,73424.8,-14.93,-17.55,-17.69,0,*62
1515874062.66,12761,5.94,73428.3,-14.91,-17.45,-17.55,0,*6F
1515874063.95,12762,5.94,73428.5,-14.93,-17.41,-17.55,0,*6A
1515874065.21,12763,5.94,73428.3,-14.93,-17.31,-17.59,0,*60
1515874066.47,12764,5.94,73428.8,-14.93,-17.31,-17.45,0,*6A
1515874067.76,12765,5.94,73432.8,-14.93,-17.41,-17.45,0,*6C
1515874069.04,12766,5.94,73430.8,-14.93,-17.55,-17.59,0,*67
1515874070.33,12767,5.94,73430.8,-14.93,-17.59,-17.59,0,*6A
1515874071.59,12768,5.94,73426.5,-14.93,-17.59,-17.73,0,*6D
1515874072.85,12769,5.94,73428.8,-14.93,-17.59,-17.69,0,*67
1515874074.11,12770,5.94,73430.5,-14.93,-17.59,-17.69,0,*6F
1515874075.39,12771,5.94,73430.5,-14.93,-17.59,-17.79,0,*6F
1515874076.67,12772,5.94,73432.5,-14.93,-17.59,-17.79,0,*6C
1515874077.93,12773,5.94,73428.3,-14.93,-17.69,-17.79,0,*6E
1515874079.19,12774,5.94,73424.0,-14.93,-17.69,-17.79,0,*69
1515874080.45,12775,5.94,73428.0,-14.91,-17.55,-17.69,0,*64
1515874081.71,12776,5.94,73430.3,-14.93,-17.55,-17.69,0,*65
1515874083.0,12777,5.94,73434.0,-14.93,-17.45,-17.59,0,*66
1515874084.29,12778,5.94,73432.0,-14.93,-17.59,-17.59,0,*64
1515874085.55,12779,5.94,73430.0,-14.93,-17.31,-17.55,0,*67
1515874086.84,12780,5.94,73428.3,-14.93,-17.45,-17.59,0,*6E
1515874088.09,12781,5.94,73432.0,-14.93,-17.31,-17.55,0,*60
1515874089.35,12782,5.94,73438.5,-14.93,-17.31,-17.41,0,*66
1515874090.64,12783,5.94,73434.5,-14.93,-17.45,-17.41,0,*64
1515874091.93,12784,5.94,73436.3,-14.93,-17.55,-17.59,0,*6B
1515874093.22,12785,5.94,73436.0,-14.93,-17.25,-17.45,0,*60
1515874094.44,12786,5.94,73436.8,-14.93,-17.31,-17.31,0,*65
1515874095.73,12787,5.94,73434.3,-14.93,-17.25,-17.41,0,*66
1515874097.02,12788,5.94,73434.8,-14.93,-17.17,-17.25,0,*6A
1515874098.25,12789,5.94,73438.8,-14.93,-17.31,-17.31,0,*6A
1515874099.54,12790,5.94,73436.5,-14.91,-17.45,-17.45,0,*60
1515874100.83,12791,5.94,73440.3,-14.91,-17.59,-17.59,0,*61
1515874102.11,12792,5.94,73436.5,-14.91,-17.59,-17.79,0,*60
1515874103.32,12793,5.94,73438.0,-14.95,-17.73,-17.83,0,*68